Date String (YYYY-MM-DD hh:mm:ss) UTC,Instrument flags,Ambient pressure (hPa),Sample flow (lpm),Bypass flow (lpm),Sample temperature (°C),Ambient temperature (°C),ASC tube jacket temperature (°C),LED temperature (°C),Box temperature (°C),Sample RH (%),Span deviation,Mass concentration (μg/m³),Mass concentration (μg/m³),Mass concentration (μg/m³)
DateTimeUTC,F1_M11,P_M11,Q1_M11,Q2_M11,T1_M11,T2_M11,T3_M11,T4_M11,T5_M11,U1_M11,ZSPAN_M11,X0_M11,X2_M11,X1_M11
2022-09-30 01:00:00,,0827.5,5.00,0.00,29.8,28.8,00.0,38.5,31.7,18.4,0000.0,0005.87,0002.36,0002.00
2022-09-30 01:01:00,,0827.6,4.99,0.00,29.9,28.8,00.0,38.5,31.8,18.4,0000.0,0005.93,0002.36,0001.99
2022-09-30 01:02:00,,0827.5,5.00,0.00,29.9,28.9,00.0,38.5,31.9,18.2,0000.0,0005.95,0002.37,0001.99
2022-09-30 01:03:00,,0827.5,4.99,0.00,29.9,28.9,00.0,38.6,31.9,18.1,0000.0,0004.57,0002.38,0002.01
2022-09-30 01:04:00,,0827.5,5.01,0.00,30.0,29.0,00.0,38.6,31.9,18.0,0000.0,0004.35,0002.41,0002.01
2022-09-30 01:05:00,,0827.5,4.99,0.00,30.0,29.0,00.0,38.6,32.0,17.9,0000.0,0004.29,0002.43,0002.02
2022-09-30 01:06:00,,0827.6,5.01,0.00,30.0,29.1,00.0,38.6,32.0,17.8,0000.0,0004.35,0002.46,0002.02
2022-09-30 01:07:00,,0827.6,5.00,0.00,30.1,29.1,00.0,38.7,32.0,17.8,0000.0,0004.18,0002.46,0002.02
2022-09-30 01:08:00,,0827.5,5.01,0.00,30.1,29.1,00.0,38.7,32.0,17.7,0000.0,0003.89,0002.41,0002.01
2022-09-30 01:09:00,,0827.5,5.00,0.00,30.1,27.8,00.0,38.7,31.9,17.7,0000.0,0003.84,0002.40,0002.01
2022-09-30 01:10:00,,0827.5,5.00,0.00,30.0,26.9,00.0,38.7,31.9,17.6,0000.0,0003.87,0002.43,0002.02
2022-09-30 01:11:00,,0827.5,4.99,0.00,30.0,27.0,00.0,38.6,31.8,17.6,0000.0,0003.72,0002.45,0002.01
2022-09-30 01:12:00,,0827.5,5.00,0.00,29.9,27.3,00.0,38.6,31.7,17.7,0000.0,0003.73,0002.48,0002.03
2022-09-30 01:13:00,,0827.5,5.00,0.00,29.9,27.6,00.0,38.6,31.6,17.7,0000.0,0004.02,0002.54,0002.05
2022-09-30 01:14:00,,0827.6,5.00,0.00,29.9,27.8,00.0,38.6,31.6,17.6,0000.0,0005.51,0002.56,0002.05
2022-09-30 01:15:00,,0827.5,5.01,0.00,29.9,28.1,00.0,38.6,31.7,17.8,0000.0,0005.77,0002.55,0002.06
2022-09-30 01:16:00,,0827.6,5.00,0.00,29.9,28.3,00.0,38.6,31.7,17.9,0000.0,0005.95,0002.60,0002.07
2022-09-30 01:17:00,,0827.6,4.98,0.00,29.9,28.4,00.0,38.6,31.8,17.9,0000.0,0005.96,0002.60,0002.07
2022-09-30 01:18:00,,0827.6,5.01,0.00,29.9,28.6,00.0,38.6,31.8,18.0,0000.0,0005.85,0002.58,0002.07
2022-09-30 01:19:00,,0827.7,5.00,0.00,29.9,28.7,00.0,38.6,31.8,18.1,0000.0,0006.09,0002.59,0002.06
2022-09-30 01:20:00,,0827.6,5.01,0.00,30.0,28.8,00.0,38.6,31.9,18.1,0000.0,0006.11,0002.57,0002.05
2022-09-30 01:21:00,,0827.6,4.98,0.00,30.0,28.8,00.0,38.6,31.9,18.1,0000.0,0006.06,0002.57,0002.03
2022-09-30 01:22:00,,0827.6,5.01,0.00,30.0,28.9,00.0,38.7,31.9,18.1,0000.0,0005.90,0002.55,0002.00
2022-09-30 01:23:00,,0827.7,4.99,0.00,30.0,29.0,00.0,38.7,32.0,18.1,0000.0,0005.92,0002.51,0001.99
2022-09-30 01:24:00,,0827.6,5.00,0.00,30.1,29.0,00.0,38.7,32.0,18.2,0000.0,0005.64,0002.45,0001.97
2022-09-30 01:25:00,,0827.6,5.00,0.00,30.1,29.1,00.0,38.7,32.0,18.1,0000.0,0004.26,0002.47,0001.95
2022-09-30 01:26:00,,0827.6,5.00,0.00,30.1,29.1,00.0,38.8,32.0,18.0,0000.0,0004.02,0002.48,0001.94
2022-09-30 01:27:00,,0827.6,4.99,0.00,30.1,29.2,00.0,38.8,32.1,17.9,0000.0,0003.88,0002.43,0001.93
2022-09-30 01:28:00,,0827.6,5.01,0.00,30.2,28.8,00.0,38.8,32.1,17.9,0000.0,0003.79,0002.38,0001.92
2022-09-30 01:29:00,,0827.6,5.00,0.00,30.2,27.5,00.0,38.8,32.0,18.0,0000.0,0003.77,0002.37,0001.92
2022-09-30 01:30:00,,0827.6,5.01,0.00,30.1,26.9,00.0,38.7,31.9,17.9,0000.0,0003.72,0002.38,0001.93
2022-09-30 01:31:00,,0827.5,5.01,0.00,30.1,27.1,00.0,38.7,31.8,17.9,0000.0,0003.70,0002.39,0001.93
2022-09-30 01:32:00,,0827.5,5.01,0.00,30.0,27.3,00.0,38.7,31.7,18.1,0000.0,0003.56,0002.37,0001.95
2022-09-30 01:33:00,,0827.6,5.00,0.00,30.0,27.6,00.0,38.7,31.8,18.0,0000.0,0003.55,0002.38,0001.96
2022-09-30 01:34:00,,0827.7,4.99,0.00,29.9,27.9,00.0,38.7,31.7,17.9,0000.0,0003.67,0002.39,0001.97
2022-09-30 01:35:00,,0827.7,5.00,0.00,29.9,28.1,00.0,38.6,31.7,17.8,0000.0,0003.73,0002.41,0002.00
2022-09-30 01:36:00,,0827.5,5.01,0.00,29.9,28.3,00.0,38.6,31.7,17.8,0000.0,0004.18,0002.45,0002.03
2022-09-30 01:37:00,,0827.5,5.00,0.00,29.9,28.5,00.0,38.7,31.8,17.6,0000.0,0004.79,0002.47,0002.03
2022-09-30 01:38:00,,0827.5,4.99,0.00,30.0,28.6,00.0,38.7,31.9,17.4,0000.0,0004.95,0002.50,0002.05
2022-09-30 01:39:00,,0827.5,5.01,0.00,30.0,28.7,00.0,38.7,31.9,17.3,0000.0,0004.96,0002.53,0002.07
2022-09-30 01:40:00,,0827.5,4.99,0.00,30.0,28.8,00.0,38.7,31.9,17.3,0000.0,0004.94,0002.52,0002.07
2022-09-30 01:41:00,,0827.5,5.01,0.00,30.0,28.9,00.0,38.7,31.9,17.3,0000.0,0004.85,0002.53,0002.08
2022-09-30 01:42:00,,0827.5,4.98,0.00,30.0,28.9,00.0,38.7,32.0,17.5,0000.0,0004.82,0002.55,0002.10
2022-09-30 01:43:00,,0827.5,5.01,0.00,30.1,28.9,00.0,38.7,32.0,17.3,0000.0,0004.87,0002.57,0002.10
2022-09-30 01:44:00,,0827.5,4.98,0.00,30.1,29.0,00.0,38.8,32.0,17.2,0000.0,0004.85,0002.57,0002.12
2022-09-30 01:45:00,,0827.5,5.01,0.00,30.1,29.1,00.0,38.8,32.0,17.3,0000.0,0004.80,0002.60,0002.14
2022-09-30 01:46:00,,0827.5,4.99,0.00,30.1,29.1,00.0,38.8,32.1,17.0,0000.0,0004.76,0002.59,0002.13
2022-09-30 01:47:00,,0827.5,5.01,0.00,30.2,29.1,00.0,38.8,32.1,17.1,0000.0,0004.56,0002.60,0002.13
2022-09-30 01:48:00,,0827.5,4.99,0.00,30.2,29.1,00.0,38.8,32.1,17.0,0000.0,0003.76,0002.59,0002.14
2022-09-30 01:49:00,,0827.5,5.00,0.00,30.2,27.8,00.0,38.8,32.0,17.0,0000.0,0003.60,0002.57,0002.15
2022-09-30 01:50:00,,0827.5,5.01,0.00,30.2,27.0,00.0,38.8,32.0,17.1,0000.0,0003.49,0002.57,0002.18
2022-09-30 01:51:00,,0827.5,4.99,0.00,30.1,27.0,00.0,38.7,31.9,17.3,0000.0,0003.51,0002.60,0002.20
2022-09-30 01:52:00,,0827.6,5.01,0.00,30.0,27.2,00.0,38.7,31.7,17.5,0000.0,0003.52,0002.61,0002.23
2022-09-30 01:53:00,,0827.6,5.01,0.00,30.0,27.5,00.0,38.7,31.7,17.7,0000.0,0003.55,0002.64,0002.25
2022-09-30 01:54:00,,0827.5,5.00,0.00,29.9,27.8,00.0,38.7,31.7,17.6,0000.0,0003.53,0002.62,0002.25
2022-09-30 01:55:00,,0827.5,4.99,0.00,29.9,28.0,00.0,38.7,31.7,17.6,0000.0,0003.76,0002.66,0002.26
2022-09-30 01:56:00,,0827.6,5.00,0.00,29.9,28.2,00.0,38.7,31.8,17.7,0000.0,0004.06,0002.72,0002.27
2022-09-30 01:57:00,,0827.5,5.00,0.00,29.9,28.4,00.0,38.7,31.8,17.8,0000.0,0004.34,0002.77,0002.29
2022-09-30 01:58:00,,0827.6,4.99,0.00,29.9,28.5,00.0,38.7,31.8,17.7,0000.0,0004.72,0002.75,0002.29
2022-09-30 01:59:00,,0827.5,5.01,0.00,30.0,28.6,00.0,38.7,31.8,17.6,0000.0,0004.73,0002.75,0002.31
